Starlink 1443

operational
NORAD ID: 45660 Int'l Des: 2020-035 Owner: SPXS Country: US Constellation: starlink
LEOCIRCULARSTARLINK_TYPE

About Starlink 1443

Description loading...

Live Position

Loading 3D Globe...

Upcoming Passes

Altitude History

Altitude vs Time

uPlot chart will show altitude changes over time

Two-Line Element Set

1 45660U 20035D 25351.61906734 .00002675 00000-0 19833-3 0 9990
2 45660 53.0556 75.0506 0001271 90.1646 269.9488 15.06412223306367
Epoch: Dec 17, 2025 • Age: 21 hours

Current Status

Altitude 551.6 km
Velocity 7.59 km/s
Sub-Earth Point 47.42°N, 71.62°W
Launch Date Jun 4, 2020
Age 5.5 years
Type internet

Technical Details

Classification Payload
Mass 260.00 kg
Dry Mass 248.00 kg
Total Mass 260.00 kg
Length 0.20 m
Diameter 2.80 m
Span 9.00 m
Shape Box + pan
Manufacturer SPXS
Bus Type Starlink
Phase Status In Orbit
Owner/State SPXS/US

Large Constellations

Loading constellations...